Rochester/St. Mary\'s Hospita, MN

6:29 PM CDT on June 18, 2018 (GMT -0500)
Rochester/St. Mary\'s Hospita

Weather History for K9MN - October, 2017

Change the Weather History Date:

Saturday, October 7, 2017

  Actual Average (KRST) Record (KRST)
Temperature  
Mean Temperature 57 °F -  
Max Temperature 59 °F 60 °F 84 °F (2011)
Min Temperature 55 °F 39 °F 22 °F (1976)
Degree Days  
Heating Degree Days 8    
Growing Degree Days 7 (Base 50)    
Moisture  
Dew Point 56 °F    
Average Humidity 95    
Maximum Humidity 100    
Minimum Humidity 75    
Precipitation  
Precipitation 0.53 in - - ()
Sea Level Pressure  
Sea Level Pressure 29.47 in    
Wind  
Wind Speed 5 mph (WNW)    
Max Wind Speed 15 mph    
Max Gust Speed 25 mph    
Visibility 8 miles    
Events      
Averages and records for this station are not official NWS values.
T = Trace of Precipitation, MM = Missing Value Source: NWS Daily Summary

Daily Weather History Graph

Daily Weather History Graph

Search for Another Location

Airport or City:

Astronomy

Oct. 07, 2017 Rise Set
Actual Time 7:15 AM CDT 6:39 PM CDT
Civil Twilight 6:46 AM CDT 7:08 PM CDT
Nautical Twilight 6:12 AM CDT 7:41 PM CDT
Astronomical Twilight 5:39 AM CDT 8:15 PM CDT
Moon 8:14 PM CDT (10/7) 9:11 AM CDT (10/7)
Length of Visible Light 12h 22m
Length of Day
11h 24m
Waning Gibbous, 95% of the Moon is Illuminated
Oct 7
Waning Gibbous
Oct 12
Last Quarter
Oct 19
New
Oct 27
First Quarter
Nov 4
Full

Hourly Weather History & Observations

Time (CDT) Temp. Dew Point Humidity Pressure Visibility Wind Dir Wind Speed Gust Speed Precip Events Conditions
12:12 AM 55.4 °F 55.6 °F 100% 29.61 in 3.0 mi NE 3.5 mph - 0.01 in   Overcast
12:32 AM 55.4 °F 55.6 °F 100% 29.59 in 5.0 mi NNE 3.5 mph - 0.01 in   Overcast
12:52 AM 55.6 °F 55.8 °F 100% 29.58 in 7.0 mi Calm Calm - 0.01 in   Overcast
1:32 AM 55.6 °F 55.8 °F 100% 29.57 in 7.0 mi Calm Calm - 0.01 in   Overcast
1:52 AM - - N/A% 29.56 in 7.0 mi Calm Calm - 0.01 in   Overcast
2:12 AM - - N/A% 29.54 in 5.0 mi Calm Calm - N/A   Overcast
2:32 AM - - N/A% 29.54 in 4.0 mi Calm Calm - 0.05 in   Overcast
2:52 AM - - N/A% 29.53 in 2.5 mi Calm Calm - 0.16 in   Overcast
3:12 AM - - N/A% 29.53 in 5.0 mi Calm Calm - 0.04 in   Overcast
3:32 AM - - N/A% 29.50 in 5.0 mi Calm Calm - 0.08 in   Overcast
3:52 AM 55.8 °F 55.9 °F 100% 29.45 in 1.2 mi North 5.8 mph - 0.10 in   Overcast
4:12 AM - - N/A% 29.45 in 7.0 mi NNE 4.6 mph - 0.01 in   Overcast
4:32 AM 56.3 °F 56.3 °F 100% 29.46 in 10.0 mi Calm Calm - 0.01 in   Overcast
4:52 AM 56.5 °F 56.7 °F 100% 29.44 in 10.0 mi Calm Calm - 0.01 in   Overcast
5:11 AM 56.5 °F 56.7 °F 100% 29.44 in 10.0 mi Calm Calm - N/A   Overcast
5:32 AM 57.2 °F 57.2 °F 100% 29.44 in 10.0 mi Calm Calm - 0.01 in   Overcast
5:52 AM 56.7 °F 56.8 °F 100% 29.43 in 5.0 mi Calm Calm - 0.01 in   Overcast
6:12 AM 56.7 °F 56.8 °F 100% 29.43 in 4.0 mi Calm Calm - N/A   Overcast
6:32 AM 56.7 °F 56.8 °F 100% 29.42 in 4.0 mi Calm Calm - 0.04 in   Overcast
6:52 AM 56.7 °F 56.8 °F 100% 29.41 in 1.8 mi Calm Calm - 0.06 in   Overcast
7:12 AM 56.8 °F 57.0 °F 100% 29.40 in 1.8 mi Calm Calm - N/A   Overcast
7:32 AM 56.8 °F 57.2 °F 100% 29.40 in 4.0 mi WNW 8.1 mph - N/A   Overcast
7:52 AM 56.5 °F 56.7 °F 100% 29.41 in 10.0 mi WNW 10.4 mph - N/A   Overcast
8:12 AM 56.3 °F 56.5 °F 100% 29.42 in 10.0 mi WNW 6.9 mph - N/A   Overcast
8:32 AM - - N/A% 29.43 in 10.0 mi WNW 10.4 mph - 0.02 in   Overcast
8:52 AM 55.8 °F 55.9 °F 100% 29.41 in 10.0 mi NW 4.6 mph - 0.02 in   Overcast
9:12 AM 55.8 °F 55.9 °F 100% 29.42 in 10.0 mi WNW 4.6 mph - N/A   Overcast
9:32 AM 55.6 °F 55.8 °F 100% 29.42 in 10.0 mi WNW 9.2 mph - 0.01 in   Overcast
9:51 AM 55.6 °F 55.8 °F 100% 29.41 in 10.0 mi NW 8.1 mph - 0.01 in   Overcast
10:12 AM 55.8 °F 56.1 °F 100% 29.41 in 10.0 mi NW 4.6 mph - N/A   Overcast
10:32 AM 56.3 °F 56.3 °F 100% 29.40 in 7.0 mi NW 6.9 mph - N/A   Overcast
10:51 AM 56.3 °F 56.5 °F 100% 29.40 in 10.0 mi NW 3.5 mph - N/A   Overcast
11:12 AM 56.3 °F 56.3 °F 100% 29.40 in 10.0 mi NW 4.6 mph - N/A   Overcast
11:32 AM 56.7 °F 56.8 °F 100% 29.39 in 10.0 mi WNW 6.9 mph - N/A   Overcast
11:51 AM 57.2 °F 57.2 °F 100% 29.40 in 10.0 mi NW 4.6 mph - N/A   Overcast
12:12 PM 57.2 °F 57.2 °F 100% 29.40 in 10.0 mi NW 4.6 mph - N/A   Overcast
12:32 PM 57.4 °F 57.4 °F 100% 29.40 in 10.0 mi Calm Calm - N/A   Overcast
12:51 PM 57.4 °F 57.4 °F 100% 29.39 in 10.0 mi WNW 4.6 mph - N/A   Overcast
1:12 PM 56.7 °F 56.8 °F 100% 29.38 in 7.0 mi NW 9.2 mph - 0.02 in   Overcast
1:32 PM 56.5 °F 56.7 °F 100% 29.37 in 10.0 mi WNW 8.1 mph - 0.03 in   Overcast
1:51 PM 56.5 °F 56.7 °F 100% 29.38 in 10.0 mi NW 6.9 mph - 0.04 in   Overcast
2:12 PM 56.7 °F 56.8 °F 100% 29.37 in 10.0 mi WNW 12.7 mph 16.1 mph N/A   Overcast
2:32 PM - - N/A% 29.38 in 4.0 mi WNW 11.5 mph 18.4 mph 0.03 in   Overcast
2:51 PM 55.4 °F 55.6 °F 100% 29.38 in 3.0 mi WNW 12.7 mph 19.6 mph 0.06 in   Overcast
3:12 PM 55.2 °F 55.4 °F 100% 29.39 in 3.0 mi WNW 8.1 mph 16.1 mph 0.02 in   Overcast
3:32 PM 55.4 °F 55.6 °F 100% 29.40 in 5.0 mi WNW 11.5 mph 17.3 mph 0.04 in   Overcast
3:51 PM - - N/A% 29.40 in 7.0 mi WNW 12.7 mph 20.7 mph 0.04 in   Overcast
4:12 PM 56.5 °F 56.7 °F 100% 29.41 in 10.0 mi WNW 15.0 mph 23.0 mph N/A   Overcast
4:32 PM 57.2 °F 57.4 °F 100% 29.42 in 10.0 mi West 15.0 mph 25.3 mph N/A   Overcast
4:51 PM 58.1 °F 58.1 °F 100% 29.43 in 10.0 mi WNW 11.5 mph 25.3 mph N/A   Overcast
5:12 PM 58.1 °F 56.3 °F 94% 29.44 in 10.0 mi WNW 13.8 mph 21.9 mph N/A   Overcast
5:32 PM 58.8 °F 56.3 °F 91% 29.46 in 10.0 mi WNW 11.5 mph 20.7 mph N/A   Mostly Cloudy
5:51 PM 59.4 °F 56.3 °F 90% 29.46 in 10.0 mi West 8.1 mph - N/A   Scattered Clouds
6:12 PM 59.5 °F 56.5 °F 90% 29.48 in 10.0 mi West 9.2 mph - N/A   Clear
6:32 PM 59.2 °F 56.8 °F 92% 29.48 in 10.0 mi WSW 9.2 mph - N/A   Clear
6:52 PM 59.0 °F 56.1 °F 90% 29.49 in 10.0 mi WSW 10.4 mph - N/A   Clear
7:12 PM 59.0 °F 55.6 °F 88% 29.50 in 10.0 mi WSW 12.7 mph 17.3 mph N/A   Clear
7:32 PM 58.6 °F 55.4 °F 89% 29.51 in 10.0 mi WSW 9.2 mph - N/A   Clear
7:52 PM 58.1 °F 55.0 °F 90% 29.51 in 10.0 mi SW 9.2 mph - N/A   Clear
8:12 PM 58.1 °F 54.5 °F 88% 29.53 in 10.0 mi SW 10.4 mph - N/A   Clear
8:32 PM 57.6 °F 54.1 °F 88% 29.53 in 10.0 mi SW 9.2 mph - N/A   Clear
8:52 PM 57.6 °F 53.6 °F 87% 29.55 in 10.0 mi SW 10.4 mph - N/A   Clear
9:12 PM 57.2 °F 52.9 °F 85% 29.55 in 10.0 mi SW 9.2 mph - N/A   Clear
9:32 PM 56.5 °F 52.2 °F 85% 29.56 in 10.0 mi SW 10.4 mph - N/A   Clear
9:52 PM 56.5 °F 51.8 °F 84% 29.56 in 10.0 mi WSW 11.5 mph 18.4 mph N/A   Clear
10:12 PM 57.2 °F 50.9 °F 79% 29.56 in 10.0 mi WSW 12.7 mph 18.4 mph N/A   Clear
10:32 PM 57.4 °F 50.4 °F 77% 29.57 in 10.0 mi WSW 12.7 mph 19.6 mph N/A   Clear
10:52 PM 57.4 °F 50.5 °F 78% 29.58 in 10.0 mi WSW 11.5 mph - N/A   Clear
11:12 PM 58.1 °F 50.4 °F 75% 29.59 in 10.0 mi WSW 12.7 mph 18.4 mph N/A   Clear
11:31 PM 58.1 °F 50.2 °F 75% 29.59 in 10.0 mi WSW 9.2 mph 18.4 mph N/A   Clear
11:52 PM 56.8 °F 50.4 °F 79% 29.60 in 10.0 mi WSW 6.9 mph - N/A   Clear